Back to catalog

DELTA 1 DEB

AliveSSO
NORAD 18475·DEBRIS·🇺🇸 United States

Launched Jan 22, 1975 from Vandenberg Space Force Base

Loading…

Next Passes (next 24 hours)

TLE

FreshSource: Space-Track

Epoch: Sep 14, 2026, 03:57 UTC

1 18475U 75004HK  26257.16474399  .00000277  00000-0  68673-4 0  9996
2 18475  97.8952 224.9387 0045505 287.1112  72.5107 14.58306715160866

Track DELTA 1 DEB in real time with AllMySat

Download on the App Store